Location: Marse
(42.1502°N, 110.9866°W)
Time: 02:14:19
(UTC+00:00)

BEESAT - Pass Details

Date: 01 July 2022
Orbit: 700 x 706 km, 98.6° (Epoch: 16 August)

Event Time Altitude Azimuth Distance (km) Brightness Sun altitude
Rises 05:24:50 0° 353° (N) 3,104 ? -18.8°
Reaches altitude 10° 05:28:22 10° 326° (NW) 2,181 ? -19.1°
Maximum altitude 05:30:22 13° 301° (WNW) 2,001 ? -19.3°
Drops below altitude 10° 05:32:23 10° 275° (W) 2,177 ? -19.5°
Sets 05:35:54 0° 248° (WSW) 3,091 ? -19.8°
